Regional Weather Roundup
Issued by NWS

Home | Current Version | Previous Version | Graphics & Text | Print | Product List | Glossary On
Versions: 1 2 3 4 5 6 7 8 9 10 11 12 13 14 15 16 17 18 19 20 21 22 23 24 25 26 27 28 29 30 31 32 33 34 35 36 37 38 39 40 41 42 43 44 45 46 47 48 49 50
000
ASUS43 KDTX 212210
RWRMI
MICHIGAN HOURLY REGIONAL WEATHER ROUNDUP
NATIONAL WEATHER SERVICE DETROIT/PONTIAC MI
600 PM EDT MON AUG 21 2017

NOTE: "FAIR" INDICATES FEW OR NO CLOUDS BELOW 12,000 FEET WITH NO
SIGNIFICANT WEATHER AND/OR OBSTRUCTION TO VISIBILITY.

MIZ047>049-052>055-059>063-066>070-074>076-081>083-212300-
SOUTHEAST LOWER MICHIGAN

CITY           SKY/WX    TMP DP  RH WIND       PRES   REMARKS
ADRIAN         MOSUNNY   85  54  34 W10       30.03F
ALMA           CLOUDY    83  68  60 SW6       29.98F
ANN ARBOR      CLOUDY    86  71  60 S7        30.01F HX  91
BAD AXE        MOSUNNY   83  68  59 S7        30.01S
CARO           CLOUDY    83  68  60 SE3       30.00R
DETROIT CITY   CLOUDY    84  69  60 S9        30.02F
DETROIT        PTSUNNY   85  71  63 S8        30.01F HX  90
FLINT          CLOUDY    82  69  64 S9        30.00F
GROSSE ILE     SUNNY     82  71  67 SE10      30.01F
HILLSDALE      CLOUDY    81  68  65 SW9       30.03F
HOWELL         CLOUDY    82  69  62 S8        30.02F

CITY           SKY/WX    TMP DP  RH WIND       PRES   REMARKS
JACKSON        MOSUNNY   85  68  56 S8        30.01F
LAMBERTVILLE   MOSUNNY   87  69  54 SW5       30.01F HX  91
LANSING        CLOUDY    83  68  60 W6        30.00F
LAPEER         CLOUDY    82  68  60 S6        30.02S
MASON          MOSUNNY   86  69  56 CALM      30.00F HX  90
MONROE         MOSUNNY   87  71  58 S5        30.01S HX  92
MT. CLEMENS    PTSUNNY   81  69  66 S10       30.01F
PONTIAC        CLOUDY    83  67  58 S6        30.02S
PORT HOPE        N/A     75  70  84 SE12      29.99F
PORT HURON     CLOUDY    82  68  61 S10       30.03S
TRI CITIES     CLOUDY    84  72  67 S5        29.99F
MIDLAND        FAIR      85  68  56 S6        29.97F
TROY           PTSUNNY   85  64  49 S9        30.04F
SAGINAW HB     CLOUDY    82  68  61 S5        29.98F
$$
MIZ043>046-050>051-056>058-064>065-071>073-077>080-212300-
SOUTHWEST LOWER MICHIGAN

CITY           SKY/WX    TMP DP  RH WIND       PRES   REMARKS
BATTLE CREEK   CLOUDY    83  70  64 SW7       30.01F
BENTON HARBOR  CLOUDY    84  70  62 S8        29.98F
BIG RAPIDS     CLOUDY    78  68  70 S7        29.96F
COLDWATER      CLOUDY    83  65  53 SW6       30.01F
FREMONT        FAIR      79  73  80 S9        29.96F
HOLLAND        MOSUNNY   79  72  79 S9        29.97F
GRAND RAPIDS   CLOUDY    82  72  71 S12       29.98F
IONIA          FAIR      82  70  67 S6        29.98F
KALAMAZOO      MOSUNNY   84  63  49 SW6       30.00F
LUDINGTON      CLOUDY    78  69  74 S7        29.93F
MARSHALL       CLOUDY    84  70  63 CALM      30.00F
MOUNT PLEASANT CLOUDY    85  67  54 S7        29.96F
MUSKEGON       CLOUDY    78  71  79 S10       29.95F
SOUTH HAVEN    CLOUDY    81  72  76 SE6       29.96F
$$
MIZ016>042-212300-
NORTHERN LOWER MICHIGAN

CITY           SKY/WX    TMP DP  RH WIND       PRES   REMARKS
ALPENA         PTSUNNY   82  69  64 SE12      29.96F
BEAVER ISLAND  MOSUNNY   76  68  76 W5        29.94F
BELLAIRE       CLOUDY    84  63  49 CALM      29.92F
CADILLAC       CLOUDY    82  67  60 S9        29.97F
CHARLEVOIX     SUNNY     75  70  84 N5        29.95F
FRANKFORT      MOSUNNY   79  70  75 W5        29.93S
GAYLORD        CLOUDY    81  63  54 S8        29.97F
GRAYLING       CLOUDY    81  63  53 S7        29.98F
HARBOR SPRINGS SUNNY     80  67  63 CALM      29.93F
HOUGHTON LAKE  MOSUNNY   82  67  60 S8        29.98F
MANISTEE       CLOUDY    79  71  76 S3        29.93S
OSCODA         CLOUDY    84  67  55 S15       29.98S
PELLSTON       SUNNY     82  66  58 S6        29.94F
ROGERS CITY    SUNNY     72  67  85 NE6       29.97F
TRAVERSE CITY  CLOUDY    83  67  58 S5        29.91F
$$
MIZ007>008-015-212300-
EASTERN UPPER MICHIGAN

CITY           SKY/WX    TMP DP  RH WIND       PRES   REMARKS
KINROSS        SUNNY     80  63  55 S7        29.94F
MACKINAC ISLAN PTSUNNY   76  67  71 CALM      29.94F
NEWBERRY       MOSUNNY   75  64  68 S5        29.93F
S. S. MARIE    SUNNY     79  63  57 SE6       29.93F
MUNISING         N/A     67  63  87 N6        29.92F
$$
MIZ004>006-011>014-085-212300-
CENTRAL UPPER MICHIGAN

CITY           SKY/WX    TMP DP  RH WIND       PRES   REMARKS
MANISTIQUE     CLOUDY    71  64  76 SE5       29.93F
ESCANABA       MOSUNNY   73  68  84 SE7       29.94R
MENOMINEE      CLOUDY    78  71  79 S5        29.94S
SAWYER-GWINN   PTSUNNY   73  61  64 NE9       29.95S
$$
MIZ001>003-009>011-084-212300-
WESTERN UPPER MICHIGAN

CITY           SKY/WX    TMP DP  RH WIND       PRES   REMARKS
IRON MOUNTAIN  CLOUDY    77  64  64 SE6       29.92S
HOUGHTON       CLOUDY    68  59  73 E7        29.93S
COPPER HARBOR    N/A     63  57  81 CALM      29.93F
IRONWOOD       CLOUDY    67  63  87 N5        29.92F
$$

ABBREVIATIONS USED IN REMARKS
   TC - TEMPERATURE IN CELSIUS
  WCI - WIND CHILL INDEX
   HX - HEAT INDEX
  VSB - VISIBILITY





USA.gov is the U.S. government's official web portal to all federal, state and local government web resources and services.